When you browse on this site, cookies collect data to enhance your experience and personalize the content and advertising you see.
Visit our Privacy Policy to learn more. By continuing to use the site, you agree to this use of cookies and data.
  • In Czech Republic
  • List of Countries
  • For 7 days
  • Water Temperature
  • Weather Map
  • Weather Widgets
  • user-avatar
    Login

    Hourly Weather Townsville

    Today, 7 April, Tuesday

    Time Temperature Precipitation Wind Pressure Humidity
    00:00 +25°C° 0.1 mm 3 mps 752 mmHg 87%
    01:00 +25°C° 0.1 mm 3 mps 752 mmHg 88%
    02:00 +25°C° 0.1 mm 3 mps 752 mmHg 88%
    03:00 +24°C° 0.1 mm 3 mps 752 mmHg 89%
    04:00 +24°C° 0 mm 3 mps 752 mmHg 89%
    05:00 +24°C° 0.1 mm 3 mps 752 mmHg 89%
    06:00 +24°C° 0.1 mm 3 mps 753 mmHg 89%
    07:00 +24°C° 0.1 mm 3 mps 753 mmHg 89%
    08:00 +26°C° 0.1 mm 3 mps 753 mmHg 81%
    09:00 +27°C° 0.1 mm 3 mps 754 mmHg 73%
    10:00 +29°C° 0.1 mm 4 mps 754 mmHg 65%
    11:00 +29°C° 0 mm 4 mps 753 mmHg 62%
    12:00 +30°C° 0 mm 4 mps 752 mmHg 59%
    13:00 +32°C° 0 mm 4 mps 752 mmHg 55%
    14:00 +30°C° 0 mm 4 mps 752 mmHg 59%
    15:00 +29°C° 0 mm 4 mps 751 mmHg 62%
    16:00 +29°C° 0 mm 4 mps 751 mmHg 66%
    17:00 +28°C° 0 mm 4 mps 752 mmHg 71%
    18:00 +26°C° 0 mm 4 mps 752 mmHg 77%
    19:00 +25°C° 0 mm 4 mps 752 mmHg 82%
    20:00 +25°C° 0 mm 4 mps 753 mmHg 82%
    21:00 +25°C° 0 mm 4 mps 753 mmHg 82%
    22:00 +25°C° 0 mm 4 mps 754 mmHg 82%
    23:00 +23°C° 0 mm 4 mps 753 mmHg 83%

    Tomorrow, 8 April, Wednesday

    Time Temperature Precipitation Wind Pressure Humidity
    00:00 +23°C° 0 mm 4 mps 753 mmHg 84%
    01:00 +23°C° 0 mm 4 mps 753 mmHg 85%
    02:00 +22°C° 0 mm 4 mps 753 mmHg 86%
    03:00 +22°C° 0 mm 4 mps 752 mmHg 87%
    04:00 +22°C° 0 mm 4 mps 752 mmHg 87%
    05:00 +22°C° 0 mm 3 mps 753 mmHg 87%
    06:00 +22°C° 0 mm 3 mps 753 mmHg 87%
    07:00 +22°C° 0 mm 3 mps 753 mmHg 87%
    08:00 +24°C° 0 mm 3 mps 753 mmHg 78%
    09:00 +26°C° 0 mm 3 mps 754 mmHg 68%
    10:00 +28°C° 0 mm 3 mps 754 mmHg 58%
    11:00 +29°C° 0 mm 4 mps 754 mmHg 54%
    12:00 +30°C° 0 mm 4 mps 753 mmHg 50%
    13:00 +32°C° 0 mm 4 mps 752 mmHg 46%
    14:00 +30°C° 0 mm 4 mps 752 mmHg 49%
    15:00 +30°C° 0 mm 4 mps 752 mmHg 51%
    16:00 +29°C° 0 mm 4 mps 752 mmHg 54%
    17:00 +28°C° 0 mm 4 mps 752 mmHg 61%
    18:00 +26°C° 0 mm 4 mps 753 mmHg 68%
    19:00 +25°C° 0 mm 3 mps 753 mmHg 76%
    20:00 +24°C° 0 mm 3 mps 754 mmHg 79%
    21:00 +24°C° 0 mm 3 mps 754 mmHg 82%
    22:00 +24°C° 0 mm 3 mps 755 mmHg 85%
    23:00 +24°C° 0 mm 3 mps 754 mmHg 86%

    Day after tomorrow, 9 April, Thursday

    Time Temperature Precipitation Wind Pressure Humidity
    00:00 +22°C° 0 mm 3 mps 754 mmHg 87%
    01:00 +22°C° 0 mm 3 mps 754 mmHg 88%
    02:00 +22°C° 0 mm 3 mps 754 mmHg 88%
    03:00 +22°C° 0 mm 3 mps 754 mmHg 89%
    04:00 +21°C° 0 mm 3 mps 754 mmHg 90%
    05:00 +22°C° 0 mm 3 mps 754 mmHg 90%
    06:00 +22°C° 0 mm 3 mps 754 mmHg 89%
    07:00 +22°C° 0 mm 3 mps 754 mmHg 89%
    08:00 +25°C° 0 mm 3 mps 755 mmHg 82%
    09:00 +26°C° 0 mm 4 mps 755 mmHg 74%
    10:00 +28°C° 0 mm 4 mps 755 mmHg 67%
    11:00 +29°C° 0 mm 4 mps 755 mmHg 62%
    12:00 +30°C° 0 mm 5 mps 754 mmHg 58%
    13:00 +32°C° 0 mm 5 mps 754 mmHg 54%
    14:00 +30°C° 0 mm 5 mps 754 mmHg 56%
    15:00 +30°C° 0 mm 5 mps 753 mmHg 59%
    16:00 +30°C° 0 mm 5 mps 753 mmHg 62%
    17:00 +28°C° 0.1 mm 4 mps 754 mmHg 69%
    18:00 +27°C° 0.1 mm 4 mps 754 mmHg 76%
    19:00 +26°C° 0.1 mm 4 mps 755 mmHg 84%
    20:00 +25°C° 0.4 mm 3 mps 755 mmHg 85%
    21:00 +25°C° 0.4 mm 3 mps 756 mmHg 87%
    22:00 +25°C° 0.4 mm 3 mps 756 mmHg 88%
    23:00 +24°C° 0.8 mm 3 mps 756 mmHg 89%

    10 April, Friday

    Time Temperature Precipitation Wind Pressure Humidity
    00:00 +24°C° 0.8 mm 3 mps 756 mmHg 90%
    01:00 +23°C° 0.8 mm 4 mps 755 mmHg 91%
    02:00 +24°C° 0.4 mm 3 mps 755 mmHg 91%
    03:00 +22°C° 0.4 mm 3 mps 755 mmHg 92%
    04:00 +22°C° 0.4 mm 3 mps 755 mmHg 93%
    05:00 +22°C° 0 mm 3 mps 755 mmHg 92%
    06:00 +22°C° 0 mm 3 mps 755 mmHg 92%
    07:00 +22°C° 0 mm 3 mps 756 mmHg 91%
    08:00 +25°C° 0 mm 3 mps 756 mmHg 84%
    09:00 +27°C° 0 mm 3 mps 756 mmHg 76%
    10:00 +29°C° 0 mm 3 mps 757 mmHg 69%
    11:00 +30°C° 0.1 mm 3 mps 756 mmHg 65%
    12:00 +30°C° 0.1 mm 3 mps 755 mmHg 61%
    13:00 +32°C° 0.1 mm 4 mps 755 mmHg 58%
    14:00 +32°C° 0 mm 4 mps 754 mmHg 60%
    15:00 +30°C° 0 mm 4 mps 754 mmHg 62%
    16:00 +30°C° 0 mm 4 mps 754 mmHg 65%
    17:00 +28°C° 0 mm 3 mps 754 mmHg 71%
    18:00 +27°C° 0 mm 3 mps 754 mmHg 77%
    19:00 +26°C° 0 mm 2 mps 755 mmHg 84%
    20:00 +25°C° 0.1 mm 2 mps 755 mmHg 85%
    21:00 +25°C° 0.1 mm 2 mps 755 mmHg 87%
    22:00 +25°C° 0.1 mm 2 mps 755 mmHg 89%
    23:00 +25°C° 0.1 mm 2 mps 755 mmHg 89%

    11 April, Saturday

    Time Temperature Precipitation Wind Pressure Humidity
    00:00 +24°C° 0.1 mm 2 mps 755 mmHg 89%
    01:00 +24°C° 0.1 mm 2 mps 754 mmHg 90%
    02:00 +24°C° 0 mm 2 mps 754 mmHg 90%
    03:00 +24°C° 0 mm 2 mps 754 mmHg 91%
    04:00 +24°C° 0 mm 2 mps 754 mmHg 92%
    05:00 +24°C° 0 mm 2 mps 754 mmHg 91%
    06:00 +24°C° 0 mm 2 mps 754 mmHg 90%
    07:00 +24°C° 0 mm 2 mps 755 mmHg 89%
    08:00 +26°C° 0 mm 2 mps 755 mmHg 80%
    09:00 +28°C° 0 mm 1 mps 755 mmHg 71%
    10:00 +30°C° 0 mm 1 mps 755 mmHg 61%
    11:00 +31°C° 0 mm 1 mps 754 mmHg 60%
    12:00 +31°C° 0 mm 2 mps 754 mmHg 58%
    13:00 +32°C° 0 mm 2 mps 753 mmHg 56%
    14:00 +31°C° 0 mm 2 mps 752 mmHg 59%
    15:00 +31°C° 0 mm 2 mps 752 mmHg 61%
    16:00 +30°C° 0 mm 2 mps 752 mmHg 63%
    17:00 +29°C° 0 mm 2 mps 752 mmHg 70%
    18:00 +27°C° 0 mm 2 mps 752 mmHg 77%
    19:00 +26°C° 0 mm 2 mps 753 mmHg 83%
    20:00 +26°C° 0 mm 1 mps 753 mmHg 84%
    21:00 +26°C° 0 mm 1 mps 753 mmHg 85%
    22:00 +25°C° 0 mm 1 mps 753 mmHg 86%
    23:00 +25°C° 0 mm 1 mps 753 mmHg 87%

    12 April, Sunday

    Time Temperature Precipitation Wind Pressure Humidity
    00:00 +25°C° 0 mm 1 mps 753 mmHg 88%
    01:00 +23°C° 0 mm 0 mps 752 mmHg 89%
    02:00 +24°C° 0 mm 1 mps 752 mmHg 89%
    03:00 +24°C° 0 mm 1 mps 752 mmHg 90%
    04:00 +24°C° 0 mm 1 mps 752 mmHg 91%
    05:00 +24°C° 0.1 mm 1 mps 752 mmHg 90%
    06:00 +24°C° 0.1 mm 1 mps 753 mmHg 88%
    07:00 +25°C° 0.1 mm 1 mps 753 mmHg 87%
    08:00 +27°C° 0 mm 1 mps 753 mmHg 77%
    09:00 +29°C° 0 mm 1 mps 754 mmHg 67%
    10:00 +31°C° 0 mm 1 mps 754 mmHg 58%
    11:00 +31°C° 0 mm 2 mps 753 mmHg 56%
    12:00 +31°C° 0 mm 2 mps 753 mmHg 55%
    13:00 +33°C° 0 mm 3 mps 752 mmHg 53%
    14:00 +31°C° 0 mm 3 mps 752 mmHg 56%
    15:00 +32°C° 0 mm 4 mps 751 mmHg 59%
    16:00 +30°C° 0 mm 4 mps 751 mmHg 62%
    17:00 +29°C° 0 mm 4 mps 752 mmHg 68%
    18:00 +27°C° 0 mm 3 mps 752 mmHg 75%
    19:00 +26°C° 0 mm 3 mps 752 mmHg 82%
    20:00 +26°C° 0 mm 3 mps 753 mmHg 83%
    21:00 +25°C° 0 mm 2 mps 754 mmHg 85%
    22:00 +25°C° 0 mm 2 mps 754 mmHg 86%
    23:00 +25°C° 0.2 mm 2 mps 754 mmHg 87%
    Show more